Location: La Sioule Rivi�re
(46.3664°N, 3.3197°E)
Time: 11:47:12
(UTC+00:00)

FALCON 9 DEB - Pass Details

Date: 29 October 2020
Orbit: 383 x 397 km, 53.0° (Epoch: 23 November)

Event Time Altitude Azimuth Distance (km) Brightness Sun altitude
Rises 17:58:42 0° 262° (W) 2,309 8.8 -14.8°
Reaches altitude 10° 18:00:53 10° 271° (W) 1,450 7.2 -15.1°
Maximum altitude 18:03:55 37° 341° (NNW) 644 4.1 -15.7°
Enters shadow 18:05:17 24° 31° (NNE) 865 4.3 -15.9°
